Date String (YYYY-MM-DD hh:mm:ss) UTC,Instrument flags,absolute air pressure of the measurement (hPa),sample flow rate (lpm),inlet stack bypass flow (lpm),air temperature of the measurement (°C),ambient temperature measured by the external sensor (°C),aerosol sample conditioner tube jacket temperature (°C),OPC LED temperature (°C),internal box temperature (°C),relative humidity of the measurement (%),span deviation,mass concentration of particles derived from Lorenz-Mie calculation of OPC scattering (μg/m³),mass concentration of particles derived from Lorenz-Mie calculation of OPC scattering (μg/m³),mass concentration of particles derived from Lorenz-Mie calculation of OPC scattering (μg/m³)
DateTimeUTC,F1_M11,P_M11,Q1_M11,Q2_M11,T1_M11,T2_M11,T3_M11,T4_M11,T5_M11,U1_M11,ZSPAN_M11,X0_M11,X2_M11,X1_M11
2023-10-25 18:00:00,SystemResetWarning,0825.9,5.00,000.00,029.1,027.8,000.0,037.5,030.8,20.7,-002.3,0021.79,0012.01,0010.24
2023-10-25 18:01:00,SystemResetWarning,0825.9,5.00,000.00,029.1,027.9,000.0,037.5,030.8,20.7,-002.4,0022.08,0012.10,0010.25
2023-10-25 18:02:00,SystemResetWarning,0825.9,4.99,000.00,029.2,027.9,000.0,037.5,030.8,20.9,-002.4,0022.17,0012.13,0010.26
2023-10-25 18:03:00,SystemResetWarning,0825.9,4.99,000.00,029.2,027.9,000.0,037.5,030.9,20.8,-002.6,0022.84,0012.18,0010.27
2023-10-25 18:04:00,SystemResetWarning,0825.9,5.00,000.00,029.2,028.0,000.0,037.5,030.9,20.9,-002.6,0023.00,0012.23,0010.30
2023-10-25 18:05:00,SystemResetWarning,0825.9,5.00,000.00,029.2,028.0,000.0,037.6,030.9,20.8,-002.6,0022.64,0012.27,0010.34
2023-10-25 18:06:00,SystemResetWarning,0825.9,5.01,000.00,029.2,028.0,000.0,037.6,030.9,21.0,-002.1,0023.00,0012.37,0010.38
2023-10-25 18:07:00,SystemResetWarning,0825.9,5.00,000.00,029.2,028.1,000.0,037.6,031.0,20.9,-001.9,0024.05,0012.43,0010.40
2023-10-25 18:08:00,SystemResetWarning,0825.9,4.99,000.00,029.3,028.1,000.0,037.6,031.0,20.9,-001.9,0023.26,0012.38,0010.41
2023-10-25 18:09:00,SystemResetWarning,0825.9,5.00,000.00,029.3,028.1,000.0,037.6,031.0,20.9,-002.0,0021.78,0012.33,0010.43
2023-10-25 18:10:00,SystemResetWarning,0825.9,5.01,000.00,029.3,028.1,000.0,037.6,031.0,20.9,-001.8,0021.86,0012.43,0010.46
2023-10-25 18:11:00,SystemResetWarning,0825.9,5.01,000.00,029.3,028.2,000.0,037.6,031.0,20.9,-001.8,0022.37,0012.48,0010.47
2023-10-25 18:12:00,SystemResetWarning,0825.9,5.00,000.00,029.3,028.2,000.0,037.7,031.1,20.7,-001.3,0021.65,0012.37,0010.45
2023-10-25 18:13:00,SystemResetWarning,0825.9,4.99,000.00,029.3,028.2,000.0,037.7,031.1,20.7,-000.9,0021.50,0012.34,0010.45
2023-10-25 18:14:00,SystemResetWarning,0825.9,4.99,000.00,029.4,028.2,000.0,037.7,031.1,20.5,-000.8,0021.34,0012.35,0010.45
2023-10-25 18:15:00,SystemResetWarning,0825.9,5.00,000.00,029.4,028.2,000.0,037.7,031.1,20.6,-000.7,0021.74,0012.36,0010.44
2023-10-25 18:16:00,SystemResetWarning,0825.9,5.01,000.00,029.4,028.3,000.0,037.7,031.1,20.4,-000.6,0022.17,0012.42,0010.44
2023-10-25 18:17:00,SystemResetWarning,0825.9,5.00,000.00,029.4,028.3,000.0,037.7,031.1,20.3,-000.7,0022.69,0012.44,0010.44
2023-10-25 18:18:00,SystemResetWarning,0825.8,5.00,000.00,029.4,028.3,000.0,037.8,031.2,20.5,-000.7,0021.79,0012.39,0010.44
2023-10-25 18:19:00,SystemResetWarning,0825.8,5.00,000.00,029.5,028.3,000.0,037.8,031.2,20.3,-000.8,0021.46,0012.45,0010.43
2023-10-25 18:20:00,SystemResetWarning,0825.8,4.98,000.00,029.5,028.4,000.0,037.8,031.2,20.3,-000.8,0022.25,0012.48,0010.38
2023-10-25 18:21:00,SystemResetWarning,0825.8,5.00,000.00,029.5,028.4,000.0,037.8,031.2,20.0,-001.0,0022.60,0012.43,0010.36
2023-10-25 18:22:00,SystemResetWarning,0825.8,5.00,000.00,029.5,028.4,000.0,037.8,031.2,20.0,-001.0,0022.16,0012.45,0010.35
2023-10-25 18:23:00,SystemResetWarning,0825.8,5.00,000.00,029.5,028.5,000.0,037.9,031.3,19.9,-001.2,0022.45,0012.47,0010.35
2023-10-25 18:24:00,SystemResetWarning,0825.8,5.00,000.00,029.6,028.5,000.0,037.9,031.3,19.8,-001.5,0022.71,0012.49,0010.36
2023-10-25 18:25:00,SystemResetWarning,0825.8,5.00,000.00,029.6,028.5,000.0,037.9,031.3,19.8,-001.4,0022.50,0012.42,0010.36
2023-10-25 18:26:00,SystemResetWarning,0825.8,5.00,000.00,029.6,028.6,000.0,037.9,031.3,19.9,-001.7,0021.79,0012.40,0010.36
2023-10-25 18:27:00,SystemResetWarning,0825.7,4.99,000.00,029.6,028.6,000.0,037.9,031.3,19.9,-001.9,0022.87,0012.36,0010.36
2023-10-25 18:28:00,SystemResetWarning,0825.7,5.00,000.00,029.7,028.6,000.0,037.9,031.4,20.1,-002.0,0022.04,0012.31,0010.37
2023-10-25 18:29:00,SystemResetWarning,0825.7,5.00,000.00,029.7,028.6,000.0,038.0,031.4,20.0,-002.3,0022.93,0012.33,0010.39
2023-10-25 18:30:00,SystemResetWarning,0825.7,5.00,000.00,029.7,028.6,000.0,038.0,031.4,19.7,-002.5,0023.03,0012.37,0010.42
2023-10-25 18:31:00,SystemResetWarning,0825.7,5.00,000.00,029.7,028.7,000.0,038.0,031.4,19.5,-002.5,0023.07,0012.44,0010.48
2023-10-25 18:32:00,SystemResetWarning,0825.7,5.01,000.00,029.8,028.7,000.0,038.0,031.4,19.5,-002.3,0022.42,0012.47,0010.53
2023-10-25 18:33:00,SystemResetWarning,0825.6,5.00,000.00,029.8,028.7,000.0,038.1,031.5,19.5,-002.5,0022.69,0012.42,0010.56
2023-10-25 18:34:00,SystemResetWarning,0825.6,5.01,000.00,029.8,028.7,000.0,038.1,031.5,19.5,-002.7,0023.42,0012.41,0010.57
2023-10-25 18:35:00,SystemResetWarning,0825.6,5.00,000.00,029.8,028.7,000.0,038.1,031.5,19.5,-002.8,0023.34,0012.41,0010.61
2023-10-25 18:36:00,SystemResetWarning,0825.6,5.00,000.00,029.8,028.7,000.0,038.1,031.5,19.6,-002.9,0023.26,0012.46,0010.67
2023-10-25 18:37:00,SystemResetWarning,0825.5,5.00,000.00,029.8,028.8,000.0,038.1,031.6,19.6,-003.2,0024.10,0012.56,0010.74
2023-10-25 18:38:00,SystemResetWarning,0825.5,4.99,000.00,029.9,028.8,000.0,038.1,031.6,19.3,-003.3,0024.29,0012.60,0010.81
2023-10-25 18:39:00,SystemResetWarning,0825.5,5.00,000.00,029.9,028.8,000.0,038.2,031.6,19.4,-003.3,0024.19,0012.68,0010.86
2023-10-25 18:40:00,SystemResetWarning,0825.4,4.99,000.00,029.9,028.7,000.0,038.2,031.6,19.3,-003.0,0024.54,0012.78,0010.90
2023-10-25 18:41:00,SystemResetWarning,0825.4,5.00,000.00,029.9,027.1,000.0,038.2,031.5,19.4,-003.0,0025.54,0012.82,0010.96
2023-10-25 18:42:00,SystemResetWarning,0825.4,5.00,000.00,029.8,025.5,000.0,038.1,031.2,19.5,-003.1,0026.39,0012.91,0011.03
2023-10-25 18:43:00,SystemResetWarning,0825.4,5.01,000.00,029.7,025.3,000.0,038.1,031.0,19.6,-003.1,0027.49,0013.01,0011.14
2023-10-25 18:44:00,SystemResetWarning,0825.3,5.02,000.00,029.6,025.6,000.0,038.1,030.8,19.8,-003.0,0027.88,0013.16,0011.25
2023-10-25 18:45:00,SystemResetWarning,0825.3,5.00,000.00,029.5,026.0,000.0,038.1,030.8,20.0,-002.8,0028.19,0013.40,0011.38
2023-10-25 18:46:00,SystemResetWarning,0825.3,4.99,000.00,029.4,026.4,000.0,038.0,030.8,20.3,-002.6,0028.56,0013.54,0011.49
2023-10-25 18:47:00,SystemResetWarning,0825.3,5.01,000.00,029.4,026.8,000.0,038.0,030.8,20.5,-002.6,0028.87,0013.71,0011.56
2023-10-25 18:48:00,SystemResetWarning,0825.3,5.01,000.00,029.4,027.1,000.0,038.0,030.9,20.6,-002.4,0029.07,0013.81,0011.61
2023-10-25 18:49:00,SystemResetWarning,0825.3,4.99,000.00,029.4,027.4,000.0,038.0,030.9,20.6,-002.1,0029.08,0013.83,0011.63
2023-10-25 18:50:00,SystemResetWarning,0825.2,5.00,000.00,029.4,027.6,000.0,037.9,031.0,20.6,-002.3,0028.96,0013.84,0011.67
2023-10-25 18:51:00,SystemResetWarning,0825.2,4.99,000.00,029.4,027.8,000.0,037.9,031.1,20.5,-002.4,0028.36,0013.84,0011.72
2023-10-25 18:52:00,SystemResetWarning,0825.3,5.00,000.00,029.5,027.9,000.0,037.9,031.1,20.6,-002.3,0027.90,0013.83,0011.73
2023-10-25 18:53:00,SystemResetWarning,0825.3,5.00,000.00,029.5,028.1,000.0,037.9,031.2,20.3,-002.1,0027.60,0013.86,0011.75
2023-10-25 18:54:00,SystemResetWarning,0825.3,4.99,000.00,029.5,028.2,000.0,037.9,031.2,20.2,-002.1,0026.86,0013.89,0011.74
2023-10-25 18:55:00,SystemResetWarning,0825.3,5.01,000.00,029.5,028.2,000.0,037.9,031.2,20.2,-002.2,0026.57,0013.88,0011.74
2023-10-25 18:56:00,SystemResetWarning,0825.2,5.00,000.00,029.6,028.3,000.0,037.9,031.2,20.4,-002.1,0026.19,0013.85,0011.75
2023-10-25 18:57:00,SystemResetWarning,0825.3,5.00,000.00,029.6,028.2,000.0,037.9,031.3,20.3,-002.0,0026.20,0013.87,0011.76
2023-10-25 18:58:00,SystemResetWarning,0825.2,4.99,000.00,029.6,026.6,000.0,037.9,031.1,20.3,-002.2,0026.71,0013.88,0011.77
2023-10-25 18:59:00,SystemResetWarning,0825.1,5.00,000.00,029.4,024.9,000.0,037.8,030.9,20.4,-002.2,0026.99,0013.92,0011.77
